Location: Asheville, NC
(35.6000°N, 82.5500°W)
Time: 08:56:12
(UTC-05:00)

RS-15 - Pass Details

Date: 04 January 2018
Orbit: 1886 x 2158 km, 64.8° (Epoch: 17 January)

Event Time Altitude Azimuth Distance (km) Brightness Sun altitude
Rises 20:22:41 0° 330° (NNW) 5,570 10.7 -34.2°
Reaches altitude 10° 20:26:11 10° 333° (NNW) 4,533 10.1 -34.9°
Enters shadow 20:37:21 71° 39° (NE) 2,076 7.8 -37.2°
